Fort Sill, OK

8:36 AM CDT on March 29, 2017 (GMT -0500)
Post Army Air Field

Weather History for KFSI - November, 2012

Change the Weather History Date:

Saturday, November 24, 2012

  Actual Average Record
Temperature  
Mean Temperature 46 °F -  
Max Temperature 62 °F 60 °F 80 °F (1974)
Min Temperature 29 °F 35 °F 16 °F (1950)
Degree Days  
Heating Degree Days 20    
Moisture  
Dew Point 22 °F    
Average Humidity 45    
Maximum Humidity 74    
Minimum Humidity 19    
Precipitation  
Precipitation 0.00 in - - ()
Sea Level Pressure  
Sea Level Pressure 30.28 in    
Wind  
Wind Speed 6 mph (SSW)    
Max Wind Speed 16 mph    
Max Gust Speed 23 mph    
Visibility 8 miles    
Events      
Averages and records for this station are not official NWS values.
T = Trace of Precipitation, MM = Missing Value Source: NWS Daily Summary

Daily Weather History Graph

Daily Weather History Graph

Search for Another Location

Airport or City:

Trip Planner

Search our weather history database for the weather conditions in past years. The results will help you decide how hot, cold, wet, or windy it might be!

Date:

Astronomy

Nov. 24, 2012 Rise Set
Actual Time 7:16 AM CST 5:24 PM CST
Civil Twilight 6:49 AM CST 5:51 PM CST
Nautical Twilight 6:18 AM CST 6:22 PM CST
Astronomical Twilight 5:48 AM CST 6:52 PM CST
Moon 3:03 PM CST (11/24) 3:41 AM CST (11/24)
Length of Visible Light 11h 02m
Length of Day
10h 07m
Waxing Gibbous, 87% of the Moon is Illuminated
Nov 24
Waxing Gibbous
Nov 28
Full
Dec 6
Last Quarter
Dec 13
New
Dec 19
First Quarter

Hourly Weather History & Observations

Time (CST) Temp. Windchill Dew Point Humidity Pressure Visibility Wind Dir Wind Speed Gust Speed Precip Events Conditions
12:09 AM 39.2 °F 35.0 °F 21.2 °F 49% 30.45 in 1.5 mi North 5.8 mph - N/A   Haze
12:17 AM 39.2 °F 35.9 °F 23.0 °F 52% 30.44 in 1.2 mi NNW 4.6 mph - N/A   Haze
12:20 AM 39.2 °F 37.0 °F 21.2 °F 49% 30.44 in 1.2 mi NNW 3.5 mph - N/A   Haze
12:21 AM 39.2 °F 37.0 °F 21.2 °F 49% 30.44 in 1.5 mi NNW 3.5 mph - N/A   Haze
12:28 AM 39.2 °F 35.9 °F 21.2 °F 49% 30.44 in 1.8 mi North 4.6 mph - N/A   Haze
12:30 AM 39.2 °F 35.0 °F 21.2 °F 49% 30.44 in 2.0 mi North 5.8 mph - N/A   Haze
12:33 AM 39.2 °F 35.0 °F 21.2 °F 49% 30.44 in 3.0 mi North 5.8 mph - N/A   Haze
12:55 AM 37.2 °F 32.6 °F 22.1 °F 54% 30.43 in 10.0 mi North 5.8 mph - N/A   Clear
1:55 AM 37.0 °F 32.4 °F 20.7 °F 52% 30.43 in 10.0 mi North 5.8 mph - N/A   Clear
2:55 AM 32.5 °F - 22.8 °F 67% 30.42 in 6.0 mi Calm Calm - N/A   Haze
3:55 AM 32.2 °F - 21.4 °F 64% 30.41 in 10.0 mi Calm Calm - N/A   Clear
4:55 AM 33.4 °F 30.4 °F 21.2 °F 61% 30.40 in 7.0 mi West 3.5 mph - N/A   Clear
5:55 AM 29.5 °F - 21.2 °F 71% 30.40 in 10.0 mi Calm Calm - N/A   Clear
6:55 AM 29.5 °F - 22.1 °F 74% 30.40 in 10.0 mi Calm Calm - N/A   Clear
7:55 AM 32.4 °F 27.9 °F 23.0 °F 68% 30.39 in 9.0 mi WSW 4.6 mph - N/A   Clear
8:55 AM 39.6 °F 36.3 °F 23.0 °F 52% 30.39 in 3.0 mi WSW 4.6 mph - N/A   Haze
9:55 AM 44.2 °F 38.4 °F 22.1 °F 42% 30.36 in 10.0 mi SSW 11.5 mph - N/A   Clear
10:55 AM 49.6 °F - 21.9 °F 34% 30.33 in 10.0 mi SW 13.8 mph - N/A   Clear
11:55 AM 53.4 °F - 23.2 °F 31% 30.29 in 10.0 mi South 12.7 mph - N/A   Clear
12:55 PM 57.2 °F - 22.6 °F 26% 30.22 in 10.0 mi South 15.0 mph 19.6 mph N/A   Clear
1:55 PM 60.1 °F - 20.5 °F 22% 30.17 in 10.0 mi SSW 13.8 mph 20.7 mph N/A   Clear
2:55 PM 62.1 °F - 20.5 °F 20% 30.13 in 10.0 mi South 16.1 mph 23.0 mph N/A   Clear
3:55 PM 61.9 °F - 19.4 °F 19% 30.09 in 10.0 mi South 13.8 mph 23.0 mph N/A   Clear
4:55 PM 59.5 °F - 20.1 °F 22% 30.07 in 10.0 mi South 16.1 mph - N/A   Clear
5:55 PM 54.0 °F - 21.4 °F 28% 30.06 in 10.0 mi South 8.1 mph - N/A   Clear
6:55 PM 52.5 °F - 21.0 °F 29% 30.05 in 10.0 mi South 12.7 mph - N/A   Clear
7:55 PM 47.1 °F - 21.9 °F 37% 30.06 in 10.0 mi SE 6.9 mph - N/A   Clear
8:55 PM 45.9 °F 41.7 °F 22.1 °F 39% 30.05 in 10.0 mi SSE 8.1 mph - N/A   Clear
9:55 PM 44.2 °F 39.2 °F 22.5 °F 42% 30.05 in 10.0 mi SSE 9.2 mph - N/A   Clear
10:55 PM 42.8 °F 37.5 °F 23.0 °F 46% 30.03 in 10.0 mi South 9.2 mph - N/A   Clear
11:55 PM 42.6 °F 37.2 °F 22.5 °F 45% 30.01 in 10.0 mi South 9.2 mph - N/A   Clear